FW5940 Weather Reports


Display with metric or nautical units.
time (UTC)temp
F
wind
direction
speed
MPH
gust
MPH
rain 1hr
in
rain 24hr
in
rain mn
in
humidity
%
barometer
mb
20260502190517 62 0.0 0.0 0.00 0.00 0.00 52 1017.7
20260502185516 64 60 1.0 2.0 0.00 0.00 0.00 46 1017.6
20260502184515 64 60 1.0 2.0 0.00 0.00 0.00 44 1017.6
20260502183536 65 60 2.0 4.0 0.00 0.00 0.00 44 1017.5
20260502182515 67 60 1.0 2.0 0.00 0.00 0.00 41 1017.5
20260502181615 68 61 2.0 3.0 0.00 0.00 0.00 38 1017.5
20260502180516 70 62 2.0 3.0 0.00 0.00 0.00 35 1017.5
20260502170515 75 62 3.0 5.0 0.00 0.00 0.00 27 1017.4
20260502163516 75 24 4.0 9.0 0.00 0.00 0.00 29 1017.5
20260502162515 75 39 4.0 7.0 0.00 0.00 0.00 30 1017.7
20260502161517 75 32 5.0 10.0 0.00 0.00 0.00 29 1017.9
20260502160515 75 27 4.0 9.0 0.00 0.00 0.00 30 1017.9
20260502151535 75 319 3.0 7.0 0.00 0.00 0.00 27 1018.5
20260502150516 75 10 6.0 11.0 0.00 0.00 0.00 28 1018.6
20260502130516 75 60 2.0 4.0 0.00 0.00 0.00 30 1020.0
20260502123516 76 61 4.0 7.0 0.00 0.00 0.00 29 1020.4
20260502122536 76 353 4.0 8.0 0.00 0.00 0.00 31 1020.6
20260502121516 76 32 3.0 8.0 0.00 0.00 0.00 30 1020.6
20260502120517 75 327 5.0 8.0 0.00 0.00 0.00 30 1020.7
20260502115536 75 23 4.0 9.0 0.00 0.00 0.00 33 1020.8
20260502114515 75 360 5.0 9.0 0.00 0.00 0.00 31 1021.0
20260502113517 74 6 4.0 8.0 0.00 0.00 0.00 32 1021.0
20260502112515 74 43 4.0 11.0 0.00 0.00 0.00 32 1021.3
20260502111517 75 8 4.0 8.0 0.00 0.00 0.00 31 1021.3
20260502110536 75 81 2.0 4.0 0.00 0.00 0.00 31 1021.4
20260502105517 73 71 2.0 6.0 0.00 0.00 0.00 35 1021.5
20260502104516 72 347 4.0 8.0 0.00 0.00 0.00 34 1021.7
20260502103515 73 13 3.0 5.0 0.00 0.00 0.00 34 1021.8
20260502102516 73 308 3.0 6.0 0.00 0.00 0.00 36 1021.9
20260502101515 71 31 2.0 4.0 0.00 0.00 0.00 35 1022.0
20260502100518 71 349 4.0 7.0 0.00 0.00 0.00 35 1022.2
20260502091518 69 50 2.0 5.0 0.00 0.00 0.00 43 1022.6
20260502090515 66 165 1.0 4.0 0.00 0.00 0.00 45 1022.6
20260502071516 58 130 2.0 4.0 0.00 0.00 0.00 54 1023.1
20260502070515 56 115 1.0 3.0 0.00 0.00 0.00 58 1023.1
20260502065536 55 155 1.0 5.0 0.00 0.00 0.00 59 1023.1
20260502064515 54 118 2.0 6.0 0.00 0.00 0.00 59 1023.2
20260502063518 53 119 2.0 6.0 0.00 0.00 0.00 63 1023.2
20260502062516 52 146 2.0 4.0 0.00 0.00 0.00 64 1023.2
20260502061517 51 123 1.0 4.0 0.00 0.00 0.00 65 1023.1
20260502060516 50 135 1.0 4.0 0.00 0.00 0.00 68 1023.2
20260502055515 49 129 1.0 4.0 0.00 0.00 0.00 70 1023.1
20260502054515 48 119 3.0 6.0 0.00 0.00 0.00 71 1023.0
20260502053515 47 115 2.0 5.0 0.00 0.00 0.00 72 1023.0
20260502052537 46 113 2.0 6.0 0.00 0.00 0.00 75 1023.1
20260502051515 43 141 1.0 3.0 0.00 0.00 0.00 79 1023.1
20260502050517 42 119 1.0 2.0 0.00 0.00 0.00 80 1023.1
20260502045517 41 156 0.0 2.0 0.00 0.00 0.00 80 1023.1
20260502044518 40 127 1.0 4.0 0.00 0.00 0.00 79 1023.0
20260502043515 41 118 0.0 2.0 0.00 0.00 0.00 79 1023.0
20260502042515 42 119 1.0 3.0 0.00 0.00 0.00 79 1023.0
20260502041515 41 108 1.0 4.0 0.00 0.00 0.00 80 1022.9
20260502040516 40 112 4.0 8.0 0.00 0.00 0.00 82 1022.9
20260502035516 38 135 1.0 3.0 0.00 0.00 0.00 82 1023.0
20260502034516 38 167 0.0 2.0 0.00 0.00 0.00 81 1023.0
20260502033518 39 0.0 0.0 0.00 0.00 0.00 81 1023.1
20260502032517 39 170 0.0 1.0 0.00 0.00 0.00 81 1023.1
20260502031516 39 170 0.0 2.0 0.00 0.00 0.00 81 1023.0
20260502030515 39 0.0 0.0 0.00 0.00 0.00 81 1023.1
20260502025516 39 0.0 0.0 0.00 0.00 0.00 80 1023.2
20260502024516 40 170 0.0 1.0 0.00 0.00 0.00 80 1023.3
20260502023516 40 0.0 0.0 0.00 0.00 0.00 80 1023.2
20260502022517 40 161 2.0 5.0 0.00 0.00 0.00 79 1023.3
20260502021516 40 0.0 0.0 0.00 0.00 0.00 79 1023.3
20260502020535 40 0.0 0.0 0.00 0.00 0.00 79 1023.3
20260502015517 41 125 1.0 2.0 0.00 0.00 0.00 78 1023.4
20260502014516 41 0.0 0.0 0.00 0.00 0.00 78 1023.4
20260502013517 41 0.0 0.0 0.00 0.00 0.00 78 1023.5
20260502012558 41 125 0.0 1.0 0.00 0.00 0.00 77 1023.5
20260502011517 42 125 0.0 2.0 0.00 0.00 0.00 77 1023.6
20260502010516 42 0.0 0.0 0.00 0.00 0.00 76 1023.6
20260502005515 42 0.0 0.0 0.00 0.00 0.00 76 1023.7
20260502004516 43 0.0 0.0 0.00 0.00 0.00 75 1023.8
20260502003515 43 120 1.0 3.0 0.00 0.00 0.00 75 1023.9
20260502002517 43 121 0.0 2.0 0.00 0.00 0.00 74 1023.9
20260502001515 45 106 1.0 2.0 0.00 0.00 0.00 72 1023.9
20260502000538 46 84 1.0 5.0 0.00 0.00 0.00 70 1023.9
20260501235516 46 83 1.0 4.0 0.00 0.00 0.00 71 1024.0
20260501234517 46 97 2.0 6.0 0.00 0.00 0.00 70 1024.1
20260501233516 48 78 0.0 3.0 0.00 0.00 0.00 66 1024.2
20260501232515 48 56 2.0 5.0 0.00 0.00 0.00 67 1024.2
20260501231519 48 67 1.0 3.0 0.00 0.00 0.00 67 1024.2
20260501230516 48 65 1.0 3.0 0.00 0.00 0.00 67 1024.3
20260501225538 49 63 1.0 2.0 0.00 0.00 0.00 66 1024.3
20260501224516 50 57 1.0 3.0 0.00 0.00 0.00 64 1024.4
20260501223517 50 54 2.0 4.0 0.00 0.00 0.00 63 1024.5
20260501222516 50 58 2.0 4.0 0.00 0.00 0.00 62 1024.7
20260501221515 51 57 2.0 4.0 0.00 0.00 0.00 61 1024.7
20260501220516 52 55 2.0 3.0 0.00 0.00 0.00 60 1024.7
20260501215515 52 65 3.0 7.0 0.00 0.00 0.00 59 1024.7
20260501214518 52 66 3.0 5.0 0.00 0.00 0.00 59 1024.6
20260501213516 52 58 2.0 4.0 0.00 0.00 0.00 59 1024.6
20260501212515 52 59 3.0 6.0 0.00 0.00 0.00 59 1024.8
20260501211516 52 68 2.0 4.0 0.00 0.00 0.00 59 1024.8
20260501210515 53 72 2.0 4.0 0.00 0.00 0.00 58 1024.9
20260501205516 53 62 2.0 7.0 0.00 0.00 0.00 57 1024.9
20260501204515 54 66 2.0 3.0 0.00 0.00 0.00 56 1025.0
20260501203517 54 64 2.0 4.0 0.00 0.00 0.00 56 1025.0
20260501202516 54 66 2.0 4.0 0.00 0.00 0.00 55 1025.0
20260501201535 55 67 2.0 6.0 0.00 0.00 0.00 54 1025.0
20260501200515 55 60 3.0 7.0 0.00 0.00 0.00 53 1025.0
20260501195515 55 75 3.0 7.0 0.00 0.00 0.00 54 1024.9
20260501194517 55 66 2.0 5.0 0.00 0.00 0.00 54 1024.9
20260501193515 55 58 2.0 4.0 0.00 0.00 0.00 54 1024.8
20260501192517 55 56 1.0 3.0 0.00 0.00 0.00 53 1024.8
20260501191515 56 53 2.0 4.0 0.00 0.00 0.00 51 1024.8